Tracking 29489 objects as of 9-Sep-2024
HD Live streaming from Space Station
objects crossing your sky now

COSMOS 1408 DEB

Track COSMOS 1408 DEB now!
10-day predictions


NORAD ID: 51435
Int'l Code: 1982-092BKG
Perigee: 403.2 km
Apogee: 469.2 km
Inclination: 82.6 °
Period: 93.2 minutes
Semi major axis: 6807 km
RCS: Unknown
Launch date: September 16, 1982
Source: Commonwealth of Independent States (former USSR) (CIS)
Launch site: PLESETSK MISSILE AND SPACE COMPLEX (PKMTR)

Note: This is SATELLITE DEBRIS
Your satellite tracking list
Your tracking list is empty




NASA's NSSDC Master Catalog

Two Line Element Set (TLE):
1 51435U 82092BKH 24252.56511259  .00090681  00000-0  17735-2 0  9997
2 51435  82.5548 185.1740 0048486  48.1949 312.3425 15.45786275146880
Source of the keplerian elements: AFSPC